Time,TemperatureF,DewpointF,PressureIn,WindDirection,WindDirectionDegrees,WindSpeedMPH,WindSpeedGustMPH,Humidity,HourlyPrecipIn,Conditions,Clouds,dailyrainin,SolarRadiationWatts/m^2,SoftwareType,DateUTC
2013-10-30 00:03:00,54.0,50.0,30.05,NW,323,1.0,4.0,86,0.00,,,0.00,0,weatherlink.com 1.10,2013-10-29 23:03:00,
2013-10-30 00:18:00,54.5,50.0,30.05,SE,142,0.0,5.0,84,0.00,,,0.00,0,weatherlink.com 1.10,2013-10-29 23:18:00,
2013-10-30 00:33:00,54.5,50.0,30.05,ENE,63,0.0,1.0,84,0.00,,,0.00,0,weatherlink.com 1.10,2013-10-29 23:33:00,
2013-10-30 00:48:00,54.3,49.0,30.05,ENE,63,0.0,0.0,83,0.00,,,0.00,0,weatherlink.com 1.10,2013-10-29 23:48:00,
2013-10-30 01:03:00,54.0,49.0,30.05,ENE,59,0.0,1.0,83,0.00,,,0.00,0,weatherlink.com 1.10,2013-10-30 00:03:00,
2013-10-30 01:18:00,54.2,50.0,30.05,ENE,60,0.0,1.0,84,0.00,,,0.00,0,weatherlink.com 1.10,2013-10-30 00:18:00,
2013-10-30 01:33:00,53.9,49.0,30.05,ENE,62,0.0,1.0,84,0.00,,,0.00,0,weatherlink.com 1.10,2013-10-30 00:33:00,
2013-10-30 01:48:00,53.4,49.0,30.04,ENE,60,0.0,0.0,84,0.00,,,0.00,0,weatherlink.com 1.10,2013-10-30 00:48:00,
2013-10-30 02:03:00,53.0,49.0,30.05,ENE,61,0.0,1.0,85,0.00,,,0.00,0,weatherlink.com 1.10,2013-10-30 01:03:00,
2013-10-30 02:18:00,52.8,48.0,30.04,ENE,58,0.0,1.0,85,0.00,,,0.00,0,weatherlink.com 1.10,2013-10-30 01:18:00,
2013-10-30 02:33:00,52.6,49.0,30.05,ENE,62,0.0,2.0,86,0.00,,,0.00,0,weatherlink.com 1.10,2013-10-30 01:33:00,
2013-10-30 02:48:00,52.3,48.0,30.05,ENE,62,0.0,1.0,86,0.00,,,0.00,0,weatherlink.com 1.10,2013-10-30 01:48:00,
2013-10-30 03:03:00,52.1,48.0,30.06,ENE,62,0.0,1.0,87,0.00,,,0.00,0,weatherlink.com 1.10,2013-10-30 02:03:00,
2013-10-30 03:18:00,52.7,49.0,30.07,North,5,3.0,4.0,87,0.00,,,0.00,0,weatherlink.com 1.10,2013-10-30 02:18:00,
2013-10-30 03:33:00,53.7,49.0,30.07,WNW,286,3.0,6.0,84,0.00,,,0.00,0,weatherlink.com 1.10,2013-10-30 02:33:00,
2013-10-30 03:48:00,54.6,49.0,30.08,North,351,3.0,7.0,81,0.00,,,0.00,0,weatherlink.com 1.10,2013-10-30 02:48:00,
2013-10-30 04:03:00,54.6,49.0,30.09,NNE,16,0.0,5.0,80,0.00,,,0.00,0,weatherlink.com 1.10,2013-10-30 03:03:00,
2013-10-30 04:18:00,54.6,49.0,30.07,North,360,1.0,9.0,80,0.00,,,0.00,0,weatherlink.com 1.10,2013-10-30 03:18:00,
2013-10-30 04:33:00,54.2,48.0,30.07,NNW,338,3.0,7.0,80,0.00,,,0.00,0,weatherlink.com 1.10,2013-10-30 03:33:00,
2013-10-30 04:48:00,54.1,48.0,30.07,WNW,299,1.0,5.0,80,0.00,,,0.00,0,weatherlink.com 1.10,2013-10-30 03:48:00,
2013-10-30 05:03:00,54.2,48.0,30.08,North,360,2.0,7.0,80,0.00,,,0.00,0,weatherlink.com 1.10,2013-10-30 04:03:00,
2013-10-30 05:18:00,54.0,48.0,30.08,South,182,1.0,6.0,81,0.00,,,0.00,0,weatherlink.com 1.10,2013-10-30 04:18:00,
2013-10-30 05:33:00,53.9,48.0,30.08,NNW,340,1.0,7.0,81,0.03,,,0.03,0,weatherlink.com 1.10,2013-10-30 04:33:00,
2013-10-30 05:48:00,53.9,50.0,30.09,NNW,338,2.0,6.0,85,0.13,,,0.13,0,weatherlink.com 1.10,2013-10-30 04:48:00,
2013-10-30 06:03:00,53.0,49.0,30.10,NE,46,2.0,5.0,86,0.13,,,0.13,0,weatherlink.com 1.10,2013-10-30 05:03:00,
2013-10-30 06:18:00,52.3,49.0,30.09,North,11,2.0,5.0,88,0.20,,,0.20,0,weatherlink.com 1.10,2013-10-30 05:18:00,
2013-10-30 06:33:00,52.2,49.0,30.07,NNW,348,0.0,6.0,89,0.13,,,0.20,9,weatherlink.com 1.10,2013-10-30 05:33:00,
2013-10-30 06:48:00,51.9,49.0,30.09,WSW,242,0.0,6.0,89,0.07,,,0.20,26,weatherlink.com 1.10,2013-10-30 05:48:00,
2013-10-30 07:03:00,52.3,49.0,30.10,NE,38,0.0,1.0,89,0.07,,,0.20,54,weatherlink.com 1.10,2013-10-30 06:03:00,
2013-10-30 07:18:00,54.4,51.0,30.10,SW,229,0.0,4.0,88,0.00,,,0.20,72,weatherlink.com 1.10,2013-10-30 06:18:00,
2013-10-30 07:33:00,55.9,51.0,30.11,WSW,244,0.0,5.0,82,0.00,,,0.20,105,weatherlink.com 1.10,2013-10-30 06:33:00,
2013-10-30 07:48:00,57.7,51.0,30.11,SW,223,0.0,6.0,78,0.00,,,0.20,53,weatherlink.com 1.10,2013-10-30 06:48:00,
2013-10-30 08:03:00,56.4,51.0,30.11,SW,234,0.0,4.0,81,0.00,,,0.20,47,weatherlink.com 1.10,2013-10-30 07:03:00,
2013-10-30 08:18:00,56.3,51.0,30.12,SW,232,0.0,2.0,83,0.00,,,0.20,93,weatherlink.com 1.10,2013-10-30 07:18:00,
2013-10-30 08:33:00,57.0,52.0,30.11,North,360,4.0,6.0,82,0.00,,,0.20,237,weatherlink.com 1.10,2013-10-30 07:33:00,
2013-10-30 08:49:00,62.1,53.0,30.11,NNW,344,0.0,5.0,73,0.00,,,0.20,123,weatherlink.com 1.10,2013-10-30 07:49:00,
2013-10-30 09:04:00,60.8,52.0,30.12,North,360,2.0,4.0,74,0.00,,,0.20,380,weatherlink.com 1.10,2013-10-30 08:04:00,
2013-10-30 09:19:00,66.4,54.0,30.12,North,360,0.0,5.0,65,0.00,,,0.20,359,weatherlink.com 1.10,2013-10-30 08:19:00,
2013-10-30 09:49:00,67.9,54.0,30.14,NNW,344,1.0,6.0,62,0.00,,,0.20,392,weatherlink.com 1.10,2013-10-30 08:49:00,
2013-10-30 10:04:00,68.7,53.0,30.14,NW,310,0.0,4.0,58,0.00,,,0.20,406,weatherlink.com 1.10,2013-10-30 09:04:00,
2013-10-30 10:19:00,64.4,51.0,30.15,WSW,257,2.0,6.0,63,0.00,,,0.20,279,weatherlink.com 1.10,2013-10-30 09:19:00,
2013-10-30 10:34:00,64.2,53.0,30.15,NE,47,0.0,3.0,66,0.00,,,0.20,552,weatherlink.com 1.10,2013-10-30 09:34:00,
2013-10-30 11:04:00,69.1,54.0,30.14,WSW,257,1.0,7.0,60,0.00,,,0.20,503,weatherlink.com 1.10,2013-10-30 10:04:00,
2013-10-30 11:19:00,69.9,51.0,30.15,North,350,0.0,10.0,52,0.00,,,0.20,496,weatherlink.com 1.10,2013-10-30 10:19:00,
2013-10-30 11:34:00,66.7,50.0,30.15,East,84,0.0,6.0,55,0.00,,,0.20,227,weatherlink.com 1.10,2013-10-30 10:34:00,
2013-10-30 11:49:00,64.9,51.0,30.15,WSW,237,1.0,7.0,60,0.00,,,0.20,267,weatherlink.com 1.10,2013-10-30 10:49:00,
2013-10-30 12:04:00,61.8,49.0,30.16,SSW,212,0.0,5.0,64,0.00,,,0.20,234,weatherlink.com 1.10,2013-10-30 11:04:00,
2013-10-30 12:19:00,62.9,49.0,30.15,NNW,327,0.0,4.0,60,0.00,,,0.20,216,weatherlink.com 1.10,2013-10-30 11:19:00,
2013-10-30 12:34:00,62.8,49.0,30.15,NNE,32,0.0,6.0,60,0.00,,,0.20,388,weatherlink.com 1.10,2013-10-30 11:34:00,
2013-10-30 12:49:00,64.2,49.0,30.15,NNW,348,5.0,7.0,58,0.00,,,0.20,174,weatherlink.com 1.10,2013-10-30 11:49:00,
2013-10-30 13:04:00,62.7,48.0,30.16,North,5,3.0,5.0,59,0.00,,,0.20,116,weatherlink.com 1.10,2013-10-30 12:04:00,
2013-10-30 13:19:00,61.9,48.0,30.16,NNW,327,1.0,8.0,60,0.00,,,0.20,109,weatherlink.com 1.10,2013-10-30 12:19:00,
2013-10-30 14:04:00,60.7,47.0,30.16,North,355,0.0,5.0,60,0.00,,,0.20,74,weatherlink.com 1.10,2013-10-30 13:04:00,
2013-10-30 14:19:00,60.4,46.0,30.17,North,360,1.0,6.0,59,0.00,,,0.20,49,weatherlink.com 1.10,2013-10-30 13:19:00,
2013-10-30 14:34:00,60.1,46.0,30.17,NNW,331,4.0,6.0,59,0.00,,,0.20,33,weatherlink.com 1.10,2013-10-30 13:34:00,
2013-10-30 14:49:00,60.1,46.0,30.18,WNW,300,1.0,7.0,59,0.00,,,0.20,72,weatherlink.com 1.10,2013-10-30 13:49:00,
2013-10-30 15:04:00,59.9,45.0,30.18,NW,311,2.0,7.0,59,0.00,,,0.20,76,weatherlink.com 1.10,2013-10-30 14:04:00,
2013-10-30 15:19:00,59.6,45.0,30.18,North,355,0.0,9.0,59,0.00,,,0.20,46,weatherlink.com 1.10,2013-10-30 14:19:00,
2013-10-30 15:34:00,59.3,45.0,30.18,North,360,2.0,8.0,60,0.00,,,0.20,37,weatherlink.com 1.10,2013-10-30 14:34:00,
2013-10-30 15:49:00,58.9,45.0,30.18,North,360,1.0,7.0,60,0.00,,,0.20,33,weatherlink.com 1.10,2013-10-30 14:49:00,
2013-10-30 16:04:00,58.4,45.0,30.19,NW,307,0.0,6.0,61,0.00,,,0.20,14,weatherlink.com 1.10,2013-10-30 15:04:00,
2013-10-30 16:19:00,57.7,44.0,30.19,North,9,4.0,4.0,61,0.00,,,0.20,0,weatherlink.com 1.10,2013-10-30 15:19:00,
2013-10-30 16:49:00,56.8,43.0,30.20,North,360,0.0,5.0,61,0.00,,,0.20,0,weatherlink.com 1.10,2013-10-30 15:49:00,
2013-10-30 17:04:00,56.7,44.0,30.21,WSW,254,0.0,4.0,62,0.00,,,0.20,0,weatherlink.com 1.10,2013-10-30 16:04:00,
2013-10-30 17:19:00,56.4,43.0,30.22,NNW,333,3.0,4.0,62,0.00,,,0.20,0,weatherlink.com 1.10,2013-10-30 16:19:00,
2013-10-30 17:34:00,56.2,44.0,30.23,NNW,329,0.0,4.0,63,0.00,,,0.20,0,weatherlink.com 1.10,2013-10-30 16:34:00,
2013-10-30 17:49:00,56.0,43.0,30.23,North,360,4.0,4.0,63,0.00,,,0.20,0,weatherlink.com 1.10,2013-10-30 16:49:00,
2013-10-30 18:05:00,56.1,43.0,30.23,SW,219,0.0,2.0,63,0.00,,,0.20,0,weatherlink.com 1.10,2013-10-30 17:05:00,
2013-10-30 18:20:00,56.0,43.0,30.24,North,360,0.0,5.0,63,0.00,,,0.20,0,weatherlink.com 1.10,2013-10-30 17:20:00,
2013-10-30 18:35:00,55.9,43.0,30.23,WSW,238,1.0,2.0,63,0.00,,,0.20,0,weatherlink.com 1.10,2013-10-30 17:35:00,
2013-10-30 18:50:00,55.7,43.0,30.23,NNE,23,0.0,4.0,62,0.00,,,0.20,0,weatherlink.com 1.10,2013-10-30 17:50:00,
2013-10-30 19:05:00,55.8,43.0,30.24,WSW,242,0.0,3.0,62,0.00,,,0.20,0,weatherlink.com 1.10,2013-10-30 18:05:00,
2013-10-30 19:20:00,55.6,43.0,30.24,NNW,333,1.0,2.0,62,0.00,,,0.20,0,weatherlink.com 1.10,2013-10-30 18:20:00,
2013-10-30 19:35:00,55.5,42.0,30.25,SW,223,0.0,3.0,62,0.00,,,0.20,0,weatherlink.com 1.10,2013-10-30 18:35:00,
2013-10-30 19:50:00,55.2,42.0,30.26,ENE,65,0.0,4.0,62,0.00,,,0.20,0,weatherlink.com 1.10,2013-10-30 18:50:00,
2013-10-30 20:05:00,54.9,42.0,30.26,North,360,0.0,2.0,62,0.00,,,0.20,0,weatherlink.com 1.10,2013-10-30 19:05:00,
2013-10-30 20:20:00,54.8,42.0,30.26,NE,50,1.0,4.0,63,0.00,,,0.20,0,weatherlink.com 1.10,2013-10-30 19:20:00,
2013-10-30 20:50:00,54.4,42.0,30.27,NNE,26,2.0,3.0,63,0.00,,,0.20,0,weatherlink.com 1.10,2013-10-30 19:50:00,
2013-10-30 21:05:00,54.3,42.0,30.28,North,360,0.0,2.0,63,0.00,,,0.20,0,weatherlink.com 1.10,2013-10-30 20:05:00,
2013-10-30 21:20:00,54.4,41.0,30.28,SW,234,0.0,2.0,61,0.00,,,0.20,0,weatherlink.com 1.10,2013-10-30 20:20:00,
2013-10-30 21:35:00,54.5,41.0,30.29,WNW,300,0.0,5.0,61,0.00,,,0.20,0,weatherlink.com 1.10,2013-10-30 20:35:00,
2013-10-30 21:50:00,54.2,41.0,30.28,NNE,12,1.0,4.0,62,0.00,,,0.20,0,weatherlink.com 1.10,2013-10-30 20:50:00,
2013-10-30 22:05:00,53.3,42.0,30.29,North,360,2.0,4.0,65,0.00,,,0.20,0,weatherlink.com 1.10,2013-10-30 21:05:00,
2013-10-30 22:20:00,53.1,40.0,30.29,SSE,164,0.0,6.0,62,0.00,,,0.20,0,weatherlink.com 1.10,2013-10-30 21:20:00,
2013-10-30 22:35:00,54.0,41.0,30.29,SSW,212,0.0,3.0,61,0.00,,,0.20,0,weatherlink.com 1.10,2013-10-30 21:35:00,
2013-10-30 22:50:00,53.6,41.0,30.29,ESE,121,0.0,3.0,62,0.00,,,0.20,0,weatherlink.com 1.10,2013-10-30 21:50:00,
2013-10-30 23:05:00,53.3,40.0,30.29,North,360,1.0,3.0,62,0.00,,,0.00,0,weatherlink.com 1.10,2013-10-30 22:05:00,
2013-10-30 23:20:00,53.1,40.0,30.30,NNW,333,2.0,5.0,61,0.00,,,0.00,0,weatherlink.com 1.10,2013-10-30 22:20:00,
2013-10-30 23:35:00,52.7,40.0,30.30,North,360,1.0,3.0,62,0.00,,,0.00,0,weatherlink.com 1.10,2013-10-30 22:35:00,
2013-10-30 23:50:00,52.7,40.0,30.30,SSE,157,0.0,3.0,63,0.00,,,0.00,0,weatherlink.com 1.10,2013-10-30 22:50:00,